{"data":{"norad_id":59243,"epoch":"2026-05-25T04:04:03.806400Z","epoch_age_seconds":56826,"freshness":"FRESH","line1":"1 59243U 24049N   26145.16948850  .00002424  00000+0  97587-4 0  9992","line2":"2 59243  43.0010  71.5369 0001165 267.4541  92.6177 15.27583119124108","mean_motion":15.27583119,"eccentricity":0.0001165,"inclination_deg":43.001,"raan_deg":71.5369,"arg_perigee_deg":267.4541,"mean_anomaly_deg":92.6177,"bstar":9.7587e-5,"rev_number":12410,"period_min":94.26655624099,"perigee_km":482.24042955534,"apogee_km":483.83908373964,"semimajor_km":6861.1767566475,"source":"CELESTRAK","updated_at":"2026-05-25T13:38:18.871644Z"}}